Regional Weather Roundup
Issued by NWS

Home | Current Version | Previous Version | Graphics & Text | Print | Product List | Glossary On
Versions: 1 2 3 4 5 6 7 8 9 10 11 12 13 14 15 16 17 18 19 20 21 22 23 24 25 26 27 28 29 30 31 32 33 34 35 36 37 38 39 40 41 42 43 44 45 46 47 48 49 50
000
ASUS44 KMEG 201700
RWRTN
TENNESSEE HOURLY STATE WEATHER ROUNDUP
NATIONAL WEATHER SERVICE MEMPHIS TN
1100 AM CST SAT DEC 20 2014

TNZ002-004-019-021-049-052-054-088>092-201800-
WEST TENNESSEE

CITY           SKY/WX    TMP DP  RH WIND       PRES   REMARKS
MEMPHIS INTL   CLOUDY    45  31  58 SE3       30.28S
NWS MEMPHIS      N/A     45 N/A N/A MISG        N/A
JACKSON        CLOUDY    43  30  60 E5        30.29R
DYERSBURG      CLOUDY    43  23  45 NE5       30.30F
UNION CITY     CLOUDY    37  30  75 N5        30.29R WCI  34
PARIS          CLOUDY    36  28  75 NE3       30.28F
LEXINGTON      CLOUDY    39  28  65 E9        30.26F WCI  33
SAVANNAH       SUNNY     45  27  49 N6        30.27F
$$

TNZ008-025-027-028-033-062-065-066-201800-
NORTH MIDDLE TENNESSEE

CITY           SKY/WX    TMP DP  RH WIND       PRES   REMARKS
NASHVILLE      PTSUNNY   42  27  55 VRB5      30.28F
CLARKSVILLE    CLOUDY    37  28  70 CALM      30.30S
COOKEVILLE     SUNNY     43  30  61 NW5       30.24S
CROSSVILLE     PTSUNNY   42  31  64 CALM      30.21S
$$

TNZ061-075-076-078-094-096-097-201800-
SOUTH MIDDLE TENNESSEE

CITY           SKY/WX    TMP DP  RH WIND       PRES   REMARKS
FAYETTEVILLE   SUNNY     43  28  56 MISG      30.23F
TULLAHOMA      SUNNY     43  28  56 N3        30.24F
WINCHESTER     SUNNY     43  30  61 N5        30.24F
SHELBYVILLE    SUNNY     43  30  61 NE5       30.26F
$$

TNZ017-018-042-046-047-201800-
NORTHEAST TENNESSEE

CITY           SKY/WX    TMP DP  RH WIND       PRES   REMARKS
TRI CITIES     CLOUDY    40  36  86 CALM      30.19F
ELIZABETHTON   CLOUDY    41  34  75 E3        30.18F
$$

TNZ012-013-036-069-073-074-201800-
CENTRAL EAST TENNESSEE

CITY           SKY/WX    TMP DP  RH WIND       PRES   REMARKS
KNOXVILLE      CLOUDY    41  31  67 N3        30.23S
OAK RIDGE      CLOUDY    44  32  62 VRB3      30.24F
GATLINBURG     CLOUDY    37  34  87 CALM      30.22S
$$

TNZ083-085-099-201800-
SOUTHEAST TENNESSEE

CITY           SKY/WX    TMP DP  RH WIND       PRES   REMARKS
CHATTANOOGA    CLOUDY    45  33  63 CALM      30.24F
$$

SKY/WX REPORTED AS FAIR MEANS FEW OR NO CLOUDS BELOW
12 THOUSAND FEET.




USA.gov is the U.S. government's official web portal to all federal, state and local government web resources and services.